Tracking 28920 objects as of 26-May-2024
HD Live streaming from Space Station
objects crossing your sky now

STARLINK-31728

Track STARLINK-31728 now!
10-day predictions


NORAD ID: 59496
Int'l Code: 2024-071N
Perigee: 450.2 km
Apogee: 452.2 km
Inclination: 43.0 °
Period: 93.5 minutes
Semi major axis: 6822 km
RCS: Unknown
Launch date: April 13, 2024
Source: United States (US)
Launch site: AIR FORCE EASTERN TEST RANGE (AFETR)
Your satellite tracking list
Your tracking list is empty




NASA's NSSDC Master Catalog

Two Line Element Set (TLE):
1 59496U 24071N   24147.17349609  .00007442  00000-0  18527-3 0  9997
2 59496  42.9993 107.9187 0001439 275.3809  84.6883 15.40695114  7915
Source of the keplerian elements: AFSPC